Location: Lombard
(41.8800°N, 88.0080°W)
Time: 12:01:07
(UTC-05:00)

AO-91 - Visible Passes

Search period start: 17 May 2022 00:00
Search period end: 27 May 2022 00:00
Orbit: 452 x 799 km, 97.7° (Epoch: 16 May)

Date Brightness Start Highest point End Pass type
(mag) Time Alt. Az. Time Alt. Az. Time Alt. Az.
17 May ? 01:06:14 10° NNW 01:09:46 18° WNW 01:11:04 17° W visible
17 May ? 22:14:26 10° ENE 22:15:45 12° E 22:15:45 12° E visible
17 May ? 23:47:49 10° NNE 23:53:02 85° NW 23:53:02 85° NW visible
18 May ? 01:26:20 10° NW 01:28:27 12° WNW 01:30:19 10° W visible
18 May ? 22:31:57 10° NE 22:34:59 18° E 22:34:59 18° E visible
19 May ? 00:06:53 10° N 00:12:04 57° WNW 00:12:16 57° W visible
19 May ? 22:50:15 10° NE 22:54:12 26° E 22:54:12 26° E visible
20 May ? 00:26:05 10° N 00:30:54 38° WNW 00:31:29 37° W visible
20 May ? 23:08:50 10° NNE 23:13:24 40° E 23:13:24 40° E visible
21 May ? 00:45:25 10° N 00:49:41 26° WNW 00:50:41 24° W visible
21 May ? 23:27:36 10° NNE 23:32:36 61° E 23:32:36 61° E visible
22 May ? 01:04:58 10° NNW 01:08:22 18° WNW 01:09:52 16° W visible
22 May ? 22:13:37 10° ENE 22:14:29 11° E 22:14:29 11° E visible
22 May ? 23:46:31 10° NNE 23:51:43 87° WNW 23:51:46 87° WSW visible
23 May ? 01:25:05 10° NW 01:27:00 12° WNW 01:28:53 10° W visible
23 May ? 22:30:44 10° NE 22:33:39 17° E 22:33:39 17° E visible
24 May ? 00:05:32 10° N 00:10:35 57° WNW 00:10:55 56° W visible
24 May ? 22:48:55 10° NE 22:52:47 25° E 22:52:47 25° E visible
25 May ? 00:24:41 10° N 00:29:23 38° WNW 00:30:04 36° W visible
25 May ? 23:07:26 10° NNE 23:11:54 38° E 23:11:54 38° E visible
26 May ? 00:43:58 10° N 00:48:05 25° WNW 00:49:11 23° W visible
26 May ? 23:26:09 10° NNE 23:31:01 59° E 23:31:01 59° E visible
